Content
SEND FEEDBACK

Daily
Averages
Monthly
Summary
Australia

MUNDARING, WESTERN AUSTRALIA


Home > Oceania > Australia > Western Australia
Elevation: 15 meters     Latitude: 31 55S     Longitude: 115 57E

WEATHER
 
SELECT A DAY
Number of Records: 297,743;   Date Range: 7/1/96 - 11/22/14
 
SHARE

PRINT THIS DATA

[ ← Previous Day ]
WEATHER ALMANAC - 31 JANUARY, 2013
[ Next Day → ]
[ °F ]   °C
Weather ElementAverageHighLow
Temperature25.9 °C35 °C (3:30 pm)17 °C (5:30 am)
Dewpoint6.2 °C11.1 °C (2:00 am)0 °C (3:55 pm)
Humidity30.9 %63 % (5:30 am)6 % (3:00 pm)
Barometer1020.7 hPa1023.4 hPa (8:00 am)1017.9 hPa (4:30 pm)
Wind Speed26.1 km/h38.9 km/h (8:10 am)
Wind Gust57.5 km/h (8:10 am)
Weather ElementAverage
Visibility26.1 km
Wind DirectionESE (95.8 °)

Weather ElementTotal
Precipitation---
Cooling Degree Days7.7 (Base 18.3)
Growing Degree Days16 (Base 10)
Averaged from 71 records on 31 January, 2013
WEATHER CONDITIONS BREAKOUT
WIND DIRECTION BREAKOUT
WEATHER BY HOUR - 31 JANUARY, 2013
[ °F ]   °C
Local TimeTemperatureDewpointHumidityBarometerVisibilityWind DirectionWind SpeedGust SpeedPrecipitationEventsConditions
12:00 AM26 °C9 °C34 %1019 hPaESE (120°)27.8 km/hClear
12:11 AM26 °C9 °C34 %1019 hPaESE (120°)29.6 km/h48.1 km/hClear
12:30 AM25 °C10 °C39 %1019 hPaESE (110°)27.8 km/h53.8 km/hClear
1:00 AM25 °C11 °C41 %1019 hPaESE (110°)29.6 km/h48.1 km/hClear
1:38 AM23 °C11 °C47 %1019 hPaEast (100°)27.8 km/h51.8 km/hClear
2:00 AM22.2 °C11.1 °C38 %1020 hPaESE (110°)33.3 km/h
2:00 AM22 °C11 °C50 %1020 hPaESE (110°)33.3 km/hClear
2:06 AM22 °C11 °C50 %1020 hPaESE (110°)31.5 km/h50.1 km/hClear
2:37 AM21 °C11 °C53 %1020 hPaESE (110°)29.6 km/h48.1 km/hClear
3:00 AM20.6 °C10.6 °C42 %1020.7 hPa30.6 kmESE (110°)22.2 km/hPartly Cloudy
3:00 AM20 °C11 °C56 %1020 hPaESE (110°)22.2 km/hClear
3:30 AM19 °C11 °C60 %1021 hPaESE (110°)20.4 km/hClear
4:00 AM19 °C10 °C56 %1020 hPaSouth (190°)11.1 km/hClear
4:30 AM18 °C10 °C59 %1021 hPaENE (70°)7.4 km/hClear
5:00 AM17.8 °C10 °C50 %1022 hPaEast (80°)13 km/h
5:00 AM18 °C10 °C59 %1021 hPaEast (80°)13 km/hClear
5:30 AM17 °C10 °C63 %1022 hPaENE (60°)9.3 km/hClear
5:49 AM17 °C10 °C63 %1022 hPaENE (60°)31.5 km/hClear
6:00 AM17.2 °C10 °C52 %1022.7 hPa30.6 kmENE (60°)25.9 km/hPartly Cloudy
6:05 AM17 °C10 °C63 %1022 hPaNE (50°)27.8 km/h51.8 km/hClear
6:30 AM18 °C10 °C59 %1022 hPaEast (90°)29.6 km/hClear
7:00 AM18 °C10 °C59 %1023 hPa10 kmENE (60°)25.9 km/hPartly Cloudy
7:36 AM20 °C10 °C52 %1023 hPa10 kmENE (60°)29.6 km/h48.1 km/hPartly Cloudy
8:00 AM20 °C9.4 °C40 %1023.4 hPaENE (60°)33.3 km/h
8:00 AM20 °C10 °C52 %1023 hPaENE (60°)33.3 km/hClear
8:10 AM20 °C9 °C49 %1023 hPaENE (70°)38.9 km/h57.5 km/hClear
8:37 AM22 °C9 °C43 %1023 hPaEast (80°)38.9 km/h57.5 km/hClear
9:00 AM22.8 °C8.9 °C30 %1023 hPa30.6 kmEast (80°)35.2 km/hPartly Cloudy
9:00 AM23 °C9 °C41 %1023 hPaEast (80°)35.2 km/hClear
9:01 AM23 °C9 °C41 %1023 hPaENE (70°)35.2 km/h53.8 km/hClear
9:36 AM24 °C8 °C36 %1023 hPaEast (80°)29.6 km/h48.1 km/hClear
10:00 AM25 °C7 °C32 %1023 hPaESE (110°)35.2 km/hClear
10:30 AM26 °C7 °C30 %1022 hPaEast (80°)29.6 km/hClear
11:00 AM27.2 °C6.7 °C17 %1022.4 hPaEast (90°)31.5 km/h
11:00 AM27 °C7 °C28 %1022 hPaEast (90°)31.5 km/h50.1 km/hClear
11:30 AM28 °C7 °C26 %1022 hPaEast (100°)29.6 km/hClear
12:00 PM29.4 °C6.1 °C14 %1021.7 hPa30.6 kmEast (100°)24.1 km/hPartly Cloudy
12:00 PM29 °C6 °C23 %1021 hPaEast (100°)24.1 km/hClear
12:30 PM31 °C7 °C22 %1021 hPaESE (110°)24.1 km/hClear
1:00 PM31 °C5 °C19 %1020 hPaESE (110°)29.6 km/hClear
1:30 PM32 °C4 °C17 %1020 hPaNE (50°)16.7 km/hClear
2:00 PM32.8 °C2.8 °C8 %1020 hPaESE (110°)25.9 km/h
2:00 PM33 °C3 °C15 %1019 hPaESE (110°)25.9 km/hClear
2:30 PM33 °C3 °C15 %1019 hPaEast (100°)22.2 km/hClear
3:00 PM34 °C1 °C12 %1019 hPaEast (80°)24.1 km/hClear
3:00 PM33.9 °C1.1 °C6 %1019.3 hPa30.6 kmEast (80°)24.1 km/hPartly Cloudy
3:30 PM35 °C1 °C12 %1019 hPaESE (120°)31.5 km/hClear
3:55 PM34 °C0 °C11 %1019 hPaEast (80°)27.8 km/h48.1 km/hClear
4:00 PM34 °C1 °C12 %1019 hPaEast (80°)29.6 km/h48.1 km/hClear
4:30 PM34 °C1 °C12 %1017.9 hPaESE (110°)27.8 km/hClear
5:00 PM33.3 °C2.2 °C7 %1019 hPaESE (110°)29.6 km/h
5:00 PM33 °C3 °C15 %1017.9 hPaESE (110°)29.6 km/hClear
5:30 PM33 °C2 °C14 %1017.9 hPaEast (100°)24.1 km/hClear
6:00 PM33 °C2 °C14 %1017.9 hPaESE (110°)27.8 km/hClear
6:00 PM32.2 °C1.7 °C7 %1019 hPa30.6 kmESE (110°)27.8 km/hPartly Cloudy
6:30 PM32 °C0 °C13 %1019 hPaESE (120°)29.6 km/hClear
7:00 PM31 °C2 °C16 %1019 hPaESE (120°)24.1 km/hClear
7:30 PM30 °C1 °C15 %1019 hPaESE (110°)18.5 km/hClear
8:00 PM28.9 °C2.2 °C10 %1020 hPaESE (110°)16.7 km/h
8:00 PM29 °C2 °C18 %1020 hPaESE (110°)16.7 km/hClear
8:30 PM28 °C3 °C20 %1020 hPaESE (110°)14.8 km/hClear
9:00 PM28 °C4 °C21 %1020 hPaESE (110°)16.7 km/hClear
9:00 PM27.8 °C3.9 °C13 %1020.7 hPa30.6 kmESE (110°)16.7 km/hPartly Cloudy
9:30 PM27 °C4 °C23 %1020 hPaEast (100°)18.5 km/hClear
10:00 PM27 °C3 °C21 %1020 hPaEast (90°)20.4 km/hClear
10:30 PM27 °C3 °C21 %1021 hPaEast (100°)22.2 km/hClear
10:53 PM26 °C3 °C23 %1020 hPaEast (100°)27.8 km/h46.3 km/hClear
11:00 PM26.1 °C3.3 °C13 %1020.7 hPaEast (100°)27.8 km/h
11:00 PM26 °C3 °C23 %1020 hPaEast (100°)27.8 km/h46.3 km/hClear
11:30 PM25 °C3 °C24 %1020 hPaEast (90°)31.5 km/hClear
11:44 PM25 °C3 °C24 %1020 hPaEast (100°)27.8 km/h46.3 km/hClear
Hourly data recorded from YPPH, located 0 kilometers away from Mundaring, Western Australia







STORIES FROM OUR PARTNERS